Hanseatic — C6KA9 — position and weather

sailwx.info

Track history (hours):
 
Tides and Currents Weather Stations Pressure Air Temp Water Temp Dewpoint Dewpoint Depression Visibility Wind Speed Wind Dir Waves Ship Positions

Hanseatic

Operator: Hapag-Lloyd Container Line

Last reported at 2018-Jun-21 16:00 UTC. Time now 2018-Jun-21 16:27 UTC.
Position N 68°33' E 016°25'.

Length 123 m; draft 4.9 m.

Type: Ship. MMSI: 309577000.

Date/timePositionNaut miles runAvg speedWind from/ knotsBaromVisibWave heightAir tempDewpointWater temp
2018-Jun-21 16:00N 68°33' E 016°25'612.4
2018-Jun-21 15:30N 68°31' E 016°10'713.8
2018-Jun-21 15:00N 68°24' E 016°02'713.7
2018-Jun-21 14:30N 68°19' E 015°52'713.7
2018-Jun-21 14:00N 68°14' E 015°39'713.9
2018-Jun-21 13:30N 68°12' E 015°21'713.9
2018-Jun-21 12:59N 68°12' E 015°02'612.3
2018-Jun-21 12:30N 68°14' E 014°46'5 9.1
2018-Jun-21 12:00N 68°13' E 014°34'1 1.4
2018-Jun-21 11:28N 68°14' E 014°34'0 0.0
2018-Jun-21 10:58N 68°14' E 014°34'0 0.0
2018-Jun-21 10:28N 68°14' E 014°34'0 0.0
2018-Jun-21 09:55N 68°14' E 014°34'0 0.0
2018-Jun-21 09:28N 68°14' E 014°34'0 0.0
2018-Jun-21 08:58N 68°14' E 014°34'0 0.0
2018-Jun-21 08:28N 68°14' E 014°34'0 0.0
2018-Jun-21 07:58N 68°14' E 014°34'0 0.0
2018-Jun-21 07:28N 68°14' E 014°34'0 0.0
2018-Jun-21 06:58N 68°14' E 014°34'0 0.0
2018-Jun-21 06:28N 68°14' E 014°34'0 0.0
2018-Jun-21 05:58N 68°14' E 014°34'0 0.0
2018-Jun-21 05:28N 68°14' E 014°34'0 0.1
2018-Jun-21 05:00N 68°14' E 014°34'2 4.5
2018-Jun-21 04:30N 68°11' E 014°33'4 7.4
2018-Jun-21 04:00N 68°08' E 014°31'4 7.4
2018-Jun-21 03:30N 68°04' E 014°30'2 4.6
2018-Jun-21 03:00N 68°04' E 014°36'1 1.9
2018-Jun-21 02:30N 68°04' E 014°38'1 2.3
2018-Jun-21 01:59N 68°04' E 014°41'2 3.4
2018-Jun-21 01:29N 68°06' E 014°43'2 3.4
2018-Jun-21 01:00N 68°07' E 014°44'2 3.3
2018-Jun-21 00:29N 68°09' E 014°46'2 3.8
2018-Jun-21 00:00N 68°11' E 014°49'2 3.4
2018-Jun-20 23:30N 68°12' E 014°52'3 5.7
2018-Jun-20 23:00N 68°14' E 014°56'4 7.2
2018-Jun-20 22:30N 68°18' E 014°59'3 6.3
2018-Jun-20 22:00N 68°21' E 015°02'4 7.4
2018-Jun-20 21:29N 68°24' E 015°06'2 3.5
2018-Jun-20 21:00N 68°26' E 015°09'612.7
2018-Jun-20 20:30N 68°20' E 015°00'2 4.3
2018-Jun-20 20:00N 68°22' E 014°57'3 6.3
2018-Jun-20 19:30N 68°19' E 014°58'714.7
2018-Jun-20 19:00N 68°12' E 014°51'714.1
2018-Jun-20 18:30N 68°07' E 014°37'815.2
2018-Jun-20 18:00N 68°06' E 014°17'714.7
2018-Jun-20 17:29N 68°05' E 013°57'714.9
2018-Jun-20 17:00N 68°04' E 013°38'4 8.1
2018-Jun-20 16:30N 68°08' E 013°34'0 0.0
2018-Jun-20 15:59N 68°08' E 013°34'0 0.0
2018-Jun-20 15:29N 68°08' E 013°34'0 0.0
2018-Jun-20 14:59N 68°08' E 013°34'0 0.0
2018-Jun-20 14:29N 68°08' E 013°34'0 0.0
2018-Jun-20 13:59N 68°08' E 013°34'0 0.0
2018-Jun-20 13:29N 68°08' E 013°34'0 0.0
2018-Jun-20 12:59N 68°08' E 013°34'0 0.0
2018-Jun-20 12:29N 68°08' E 013°34'0 0.0
2018-Jun-20 11:59N 68°08' E 013°34'1 2.1
2018-Jun-20 11:30N 68°07' E 013°36'510.5
2018-Jun-20 11:00N 68°02' E 013°34'714.6
2018-Jun-20 10:30N 67°58' E 013°18'5 8.9
2018-Jun-20 10:00N 67°56' E 013°06'0 0.2
2018-Jun-20 09:21N 67°56' E 013°06'0 0.0
2018-Jun-20 07:57N 67°56' E 013°06'0 0.0
2018-Jun-20 07:21N 67°56' E 013°06'0 0.0
2018-Jun-20 06:48N 67°56' E 013°06'0 0.0
2018-Jun-20 06:18N 67°56' E 013°06'0 0.0
2018-Jun-20 06:00N 67°56' E 013°06'0 0.1
2018-Jun-20 05:26N 67°56' E 013°06'2 4.8
2018-Jun-20 05:00N 67°54' E 013°08'611.0
2018-Jun-20 04:30N 67°49' E 013°09'611.1
2018-Jun-20 04:00N 67°43' E 013°11'611.3
2018-Jun-20 03:30N 67°38' E 013°13'611.3
2018-Jun-20 03:00N 67°32' E 013°15'611.3
2018-Jun-20 02:29N 67°26' E 013°16'611.6
2018-Jun-20 02:00N 67°21' E 013°18'712.8
2018-Jun-20 01:29N 67°14' E 013°20'612.8
2018-Jun-20 00:59N 67°08' E 013°23'611.8
2018-Jun-20 00:30N 67°02' E 013°24'611.4
2018-Jun-19 23:59N 66°56' E 013°29'511.0
2018-Jun-19 23:30N 66°52' E 013°21'611.1
2018-Jun-19 23:00N 66°47' E 013°15'612.1
2018-Jun-19 22:30N 66°42' E 013°09'612.2
2018-Jun-19 22:00N 66°36' E 013°04'510.3
2018-Jun-19 21:30N 66°31' E 012°58'714.3
2018-Jun-19 21:00N 66°24' E 012°59'815.4
2018-Jun-19 20:30N 66°17' E 012°56'815.7
2018-Jun-19 20:00N 66°09' E 012°49'816.1
2018-Jun-19 19:30N 66°03' E 012°37'713.6
2018-Jun-19 18:59N 65°57' E 012°26'715.1
2018-Jun-19 18:30N 65°50' E 012°22'815.2
2018-Jun-19 18:00N 65°43' E 012°17'1115.4
2018-Jun-19 17:17N 65°33' E 012°04'716.3
2018-Jun-19 16:52N 65°27' E 011°56'514.2
2018-Jun-19 16:30N 65°22' E 012°01'612.6
2018-Jun-19 16:00N 65°16' E 011°57'815.9
2018-Jun-19 15:30N 65°09' E 011°50'714.0
2018-Jun-19 14:59N 65°02' E 011°43'613.0
2018-Jun-19 14:30N 64°58' E 011°33'713.3
2018-Jun-19 14:00N 64°54' E 011°20'3 6.3
2018-Jun-19 13:29N 64°52' E 011°14'0 0.0
2018-Jun-19 13:00N 64°52' E 011°14'0 0.0
2018-Jun-19 12:30N 64°52' E 011°14'0 0.0
2018-Jun-19 12:00N 64°52' E 011°14'0 0.0
2018-Jun-19 11:30N 64°52' E 011°14'1 2.7
2018-Jun-19 11:01N 64°51' E 011°12'2 4.0
2018-Jun-19 10:30N 64°49' E 011°09'4 8.8
2018-Jun-19 10:00N 64°46' E 011°02'815.1
2018-Jun-19 09:30N 64°41' E 010°48'814.9
2018-Jun-19 08:59N 64°35' E 010°38'715.4
2018-Jun-19 08:30N 64°29' E 010°27'713.3
2018-Jun-19 08:00N 64°22' E 010°28'612.6
2018-Jun-19 07:30N 64°17' E 010°20'612.4
2018-Jun-19 07:00N 64°12' E 010°11'714.9
2018-Jun-19 06:30N 64°06' E 010°01'714.6
2018-Jun-19 05:59N 64°02' E 009°47'714.1
2018-Jun-19 05:28N 63°55' E 009°47'714.3
2018-Jun-19 05:00N 63°50' E 009°37'714.1
2018-Jun-19 04:30N 63°43' E 009°31'714.5
2018-Jun-19 03:59N 63°36' E 009°27'714.3
2018-Jun-19 03:30N 63°32' E 009°14'714.6
2018-Jun-19 03:00N 63°29' E 008°59'714.5
2018-Jun-19 02:29N 63°26' E 008°44'714.7
2018-Jun-19 02:00N 63°23' E 008°29'815.3
2018-Jun-19 01:29N 63°18' E 008°15'815.9
2018-Jun-19 01:00N 63°14' E 008°00'815.9
2018-Jun-19 00:30N 63°10' E 007°45'815.7
2018-Jun-19 00:00N 63°06' E 007°31'815.3
2018-Jun-18 23:30N 63°03' E 007°15'815.5
2018-Jun-18 23:00N 62°60' E 006°59'815.2
2018-Jun-18 22:30N 62°55' E 006°47'815.6
2018-Jun-18 22:00N 62°48' E 006°37'815.8
2018-Jun-18 21:30N 62°42' E 006°28'714.4
2018-Jun-18 21:00N 62°37' E 006°16'3 6.9
2018-Jun-18 20:30N 62°36' E 006°09'613.1
2018-Jun-18 20:00N 62°29' E 006°08'611.2
2018-Jun-18 19:30N 62°24' E 006°05'714.4
2018-Jun-18 19:00N 62°24' E 006°20'714.1
2018-Jun-18 18:29N 62°26' E 006°35'713.5
2018-Jun-18 18:00N 62°27' E 006°49'612.6
2018-Jun-18 17:30N 62°21' E 006°56'714.4
2018-Jun-18 17:00N 62°15' E 007°01'714.3
2018-Jun-18 16:30N 62°08' E 006°57'510.0
2018-Jun-18 16:00N 62°07' E 007°08'2 3.5
2018-Jun-18 15:30N 62°06' E 007°11'0 0.1
2018-Jun-18 15:00N 62°06' E 007°11'0 0.1
2018-Jun-18 14:30N 62°06' E 007°11'0 0.0
2018-Jun-18 14:00N 62°06' E 007°11'0 0.0
2018-Jun-18 13:30N 62°06' E 007°11'0 0.0
2018-Jun-18 13:00N 62°06' E 007°11'0 0.0
2018-Jun-18 12:30N 62°06' E 007°11'0 0.0
2018-Jun-18 12:00N 62°06' E 007°11'0 0.0
2018-Jun-18 11:31N 62°06' E 007°11'0 0.0
2018-Jun-18 11:00N 62°06' E 007°11'0 0.1
2018-Jun-18 10:31N 62°06' E 007°11'0 0.2
2018-Jun-18 10:00N 62°06' E 007°11'4 7.8
2018-Jun-18 09:30N 62°05' E 007°03'4 1.0
2018-Jun-18 05:24N 62°07' E 006°55'512.9
2018-Jun-18 05:00N 62°11' E 007°02'713.3
2018-Jun-18 04:30N 62°17' E 007°01'714.0
2018-Jun-18 04:00N 62°24' E 006°55'713.8
2018-Jun-18 03:30N 62°27' E 006°43'814.8
2018-Jun-18 03:00N 62°25' E 006°27'714.8
2018-Jun-18 02:30N 62°23' E 006°12'713.4
2018-Jun-18 02:00N 62°27' E 005°60'4 8.7
2018-Jun-18 01:29N 62°28' E 005°51'510.7
2018-Jun-18 01:00N 62°30' E 005°41'611.0
2018-Jun-18 00:29N 62°31' E 005°29'612.2
2018-Jun-17 23:59N 62°32' E 005°16'511.0
2018-Jun-17 23:30N 62°33' E 005°04'  
Track history (hours):
 
Tides and Currents Weather Stations Pressure Air Temp Water Temp Dewpoint Dewpoint Depression Visibility Wind Speed Wind Dir Waves Ship Positions

Hanseatic

Operator: Hapag-Lloyd Container Line

Last reported at 2018-Jun-21 16:00 UTC. Time now 2018-Jun-21 16:27 UTC.
Position N 68°33' E 016°25'.

Length 123 m; draft 4.9 m.

Type: Ship. MMSI: 309577000.

Date/timePositionNaut miles runAvg speedWind from/ knotsBaromVisibWave heightAir tempDewpointWater temp
2018-Jun-21 16:00N 68°33' E 016°25'612.4
2018-Jun-21 15:30N 68°31' E 016°10'713.8
2018-Jun-21 15:00N 68°24' E 016°02'713.7
2018-Jun-21 14:30N 68°19' E 015°52'713.7
2018-Jun-21 14:00N 68°14' E 015°39'713.9
2018-Jun-21 13:30N 68°12' E 015°21'713.9
2018-Jun-21 12:59N 68°12' E 015°02'612.3
2018-Jun-21 12:30N 68°14' E 014°46'5 9.1
2018-Jun-21 12:00N 68°13' E 014°34'1 1.4
2018-Jun-21 11:28N 68°14' E 014°34'0 0.0
2018-Jun-21 10:58N 68°14' E 014°34'0 0.0
2018-Jun-21 10:28N 68°14' E 014°34'0 0.0
2018-Jun-21 09:55N 68°14' E 014°34'0 0.0
2018-Jun-21 09:28N 68°14' E 014°34'0 0.0
2018-Jun-21 08:58N 68°14' E 014°34'0 0.0
2018-Jun-21 08:28N 68°14' E 014°34'0 0.0
2018-Jun-21 07:58N 68°14' E 014°34'0 0.0
2018-Jun-21 07:28N 68°14' E 014°34'0 0.0
2018-Jun-21 06:58N 68°14' E 014°34'0 0.0
2018-Jun-21 06:28N 68°14' E 014°34'0 0.0
2018-Jun-21 05:58N 68°14' E 014°34'0 0.0
2018-Jun-21 05:28N 68°14' E 014°34'0 0.1
2018-Jun-21 05:00N 68°14' E 014°34'2 4.5
2018-Jun-21 04:30N 68°11' E 014°33'4 7.4
2018-Jun-21 04:00N 68°08' E 014°31'4 7.4
2018-Jun-21 03:30N 68°04' E 014°30'2 4.6
2018-Jun-21 03:00N 68°04' E 014°36'1 1.9
2018-Jun-21 02:30N 68°04' E 014°38'1 2.3
2018-Jun-21 01:59N 68°04' E 014°41'2 3.4
2018-Jun-21 01:29N 68°06' E 014°43'2 3.4
2018-Jun-21 01:00N 68°07' E 014°44'2 3.3
2018-Jun-21 00:29N 68°09' E 014°46'2 3.8
2018-Jun-21 00:00N 68°11' E 014°49'2 3.4
2018-Jun-20 23:30N 68°12' E 014°52'3 5.7
2018-Jun-20 23:00N 68°14' E 014°56'4 7.2
2018-Jun-20 22:30N 68°18' E 014°59'3 6.3
2018-Jun-20 22:00N 68°21' E 015°02'4 7.4
2018-Jun-20 21:29N 68°24' E 015°06'2 3.5
2018-Jun-20 21:00N 68°26' E 015°09'612.7
2018-Jun-20 20:30N 68°20' E 015°00'2 4.3
2018-Jun-20 20:00N 68°22' E 014°57'3 6.3
2018-Jun-20 19:30N 68°19' E 014°58'714.7
2018-Jun-20 19:00N 68°12' E 014°51'714.1
2018-Jun-20 18:30N 68°07' E 014°37'815.2
2018-Jun-20 18:00N 68°06' E 014°17'714.7
2018-Jun-20 17:29N 68°05' E 013°57'714.9
2018-Jun-20 17:00N 68°04' E 013°38'4 8.1
2018-Jun-20 16:30N 68°08' E 013°34'0 0.0
2018-Jun-20 15:59N 68°08' E 013°34'0 0.0
2018-Jun-20 15:29N 68°08' E 013°34'0 0.0
2018-Jun-20 14:59N 68°08' E 013°34'0 0.0
2018-Jun-20 14:29N 68°08' E 013°34'0 0.0
2018-Jun-20 13:59N 68°08' E 013°34'0 0.0
2018-Jun-20 13:29N 68°08' E 013°34'0 0.0
2018-Jun-20 12:59N 68°08' E 013°34'0 0.0
2018-Jun-20 12:29N 68°08' E 013°34'0 0.0
2018-Jun-20 11:59N 68°08' E 013°34'1 2.1
2018-Jun-20 11:30N 68°07' E 013°36'510.5
2018-Jun-20 11:00N 68°02' E 013°34'714.6
2018-Jun-20 10:30N 67°58' E 013°18'5 8.9
2018-Jun-20 10:00N 67°56' E 013°06'0 0.2
2018-Jun-20 09:21N 67°56' E 013°06'0 0.0
2018-Jun-20 07:57N 67°56' E 013°06'0 0.0
2018-Jun-20 07:21N 67°56' E 013°06'0 0.0
2018-Jun-20 06:48N 67°56' E 013°06'0 0.0
2018-Jun-20 06:18N 67°56' E 013°06'0 0.0
2018-Jun-20 06:00N 67°56' E 013°06'0 0.1
2018-Jun-20 05:26N 67°56' E 013°06'2 4.8
2018-Jun-20 05:00N 67°54' E 013°08'611.0
2018-Jun-20 04:30N 67°49' E 013°09'611.1
2018-Jun-20 04:00N 67°43' E 013°11'611.3
2018-Jun-20 03:30N 67°38' E 013°13'611.3
2018-Jun-20 03:00N 67°32' E 013°15'611.3
2018-Jun-20 02:29N 67°26' E 013°16'611.6
2018-Jun-20 02:00N 67°21' E 013°18'712.8
2018-Jun-20 01:29N 67°14' E 013°20'612.8
2018-Jun-20 00:59N 67°08' E 013°23'611.8
2018-Jun-20 00:30N 67°02' E 013°24'611.4
2018-Jun-19 23:59N 66°56' E 013°29'511.0
2018-Jun-19 23:30N 66°52' E 013°21'611.1
2018-Jun-19 23:00N 66°47' E 013°15'612.1
2018-Jun-19 22:30N 66°42' E 013°09'612.2
2018-Jun-19 22:00N 66°36' E 013°04'510.3
2018-Jun-19 21:30N 66°31' E 012°58'714.3
2018-Jun-19 21:00N 66°24' E 012°59'815.4
2018-Jun-19 20:30N 66°17' E 012°56'815.7
2018-Jun-19 20:00N 66°09' E 012°49'816.1
2018-Jun-19 19:30N 66°03' E 012°37'713.6
2018-Jun-19 18:59N 65°57' E 012°26'715.1
2018-Jun-19 18:30N 65°50' E 012°22'815.2
2018-Jun-19 18:00N 65°43' E 012°17'1115.4
2018-Jun-19 17:17N 65°33' E 012°04'716.3
2018-Jun-19 16:52N 65°27' E 011°56'514.2
2018-Jun-19 16:30N 65°22' E 012°01'612.6
2018-Jun-19 16:00N 65°16' E 011°57'815.9
2018-Jun-19 15:30N 65°09' E 011°50'714.0
2018-Jun-19 14:59N 65°02' E 011°43'613.0
2018-Jun-19 14:30N 64°58' E 011°33'713.3
2018-Jun-19 14:00N 64°54' E 011°20'3 6.3
2018-Jun-19 13:29N 64°52' E 011°14'0 0.0
2018-Jun-19 13:00N 64°52' E 011°14'0 0.0
2018-Jun-19 12:30N 64°52' E 011°14'0 0.0
2018-Jun-19 12:00N 64°52' E 011°14'0 0.0
2018-Jun-19 11:30N 64°52' E 011°14'1 2.7
2018-Jun-19 11:01N 64°51' E 011°12'2 4.0
2018-Jun-19 10:30N 64°49' E 011°09'4 8.8
2018-Jun-19 10:00N 64°46' E 011°02'815.1
2018-Jun-19 09:30N 64°41' E 010°48'814.9
2018-Jun-19 08:59N 64°35' E 010°38'715.4
2018-Jun-19 08:30N 64°29' E 010°27'713.3
2018-Jun-19 08:00N 64°22' E 010°28'612.6
2018-Jun-19 07:30N 64°17' E 010°20'612.4
2018-Jun-19 07:00N 64°12' E 010°11'714.9
2018-Jun-19 06:30N 64°06' E 010°01'714.6
2018-Jun-19 05:59N 64°02' E 009°47'714.1
2018-Jun-19 05:28N 63°55' E 009°47'714.3
2018-Jun-19 05:00N 63°50' E 009°37'714.1
2018-Jun-19 04:30N 63°43' E 009°31'714.5
2018-Jun-19 03:59N 63°36' E 009°27'714.3
2018-Jun-19 03:30N 63°32' E 009°14'714.6
2018-Jun-19 03:00N 63°29' E 008°59'714.5
2018-Jun-19 02:29N 63°26' E 008°44'714.7
2018-Jun-19 02:00N 63°23' E 008°29'815.3
2018-Jun-19 01:29N 63°18' E 008°15'815.9
2018-Jun-19 01:00N 63°14' E 008°00'815.9
2018-Jun-19 00:30N 63°10' E 007°45'815.7
2018-Jun-19 00:00N 63°06' E 007°31'815.3
2018-Jun-18 23:30N 63°03' E 007°15'815.5
2018-Jun-18 23:00N 62°60' E 006°59'815.2
2018-Jun-18 22:30N 62°55' E 006°47'815.6
2018-Jun-18 22:00N 62°48' E 006°37'815.8
2018-Jun-18 21:30N 62°42' E 006°28'714.4
2018-Jun-18 21:00N 62°37' E 006°16'3 6.9
2018-Jun-18 20:30N 62°36' E 006°09'613.1
2018-Jun-18 20:00N 62°29' E 006°08'611.2
2018-Jun-18 19:30N 62°24' E 006°05'714.4
2018-Jun-18 19:00N 62°24' E 006°20'714.1
2018-Jun-18 18:29N 62°26' E 006°35'713.5
2018-Jun-18 18:00N 62°27' E 006°49'612.6
2018-Jun-18 17:30N 62°21' E 006°56'714.4
2018-Jun-18 17:00N 62°15' E 007°01'714.3
2018-Jun-18 16:30N 62°08' E 006°57'510.0
2018-Jun-18 16:00N 62°07' E 007°08'2 3.5
2018-Jun-18 15:30N 62°06' E 007°11'0 0.1
2018-Jun-18 15:00N 62°06' E 007°11'0 0.1
2018-Jun-18 14:30N 62°06' E 007°11'0 0.0
2018-Jun-18 14:00N 62°06' E 007°11'0 0.0
2018-Jun-18 13:30N 62°06' E 007°11'0 0.0
2018-Jun-18 13:00N 62°06' E 007°11'0 0.0
2018-Jun-18 12:30N 62°06' E 007°11'0 0.0
2018-Jun-18 12:00N 62°06' E 007°11'0 0.0
2018-Jun-18 11:31N 62°06' E 007°11'0 0.0
2018-Jun-18 11:00N 62°06' E 007°11'0 0.1
2018-Jun-18 10:31N 62°06' E 007°11'0 0.2
2018-Jun-18 10:00N 62°06' E 007°11'4 7.8
2018-Jun-18 09:30N 62°05' E 007°03'4 1.0
2018-Jun-18 05:24N 62°07' E 006°55'512.9
2018-Jun-18 05:00N 62°11' E 007°02'713.3
2018-Jun-18 04:30N 62°17' E 007°01'714.0
2018-Jun-18 04:00N 62°24' E 006°55'713.8
2018-Jun-18 03:30N 62°27' E 006°43'814.8
2018-Jun-18 03:00N 62°25' E 006°27'714.8
2018-Jun-18 02:30N 62°23' E 006°12'713.4
2018-Jun-18 02:00N 62°27' E 005°60'4 8.7
2018-Jun-18 01:29N 62°28' E 005°51'510.7
2018-Jun-18 01:00N 62°30' E 005°41'611.0
2018-Jun-18 00:29N 62°31' E 005°29'612.2
2018-Jun-17 23:59N 62°32' E 005°16'511.0
2018-Jun-17 23:30N 62°33' E 005°04'  

Dump ship's entire track history